Simultaneous Nadir Overpasses (SNOs) Predictions

Prediction of SNOs between GOES-16 and TERRA Satellite Orbit:

Table of predicted SNOs for the next 14.0 days since TLE Epoch: 12/7/2019
Index Date Time (GOES-16) GOES-16 Lat,Lon TERRA Lat,Lon Distance(km) Time Diff (sec)
1 12/07/2019 03:20:40 0.01, -75.19 0.48, -73.07 241.65 80
2 12/07/2019 15:41:55 -0.01, -75.20 0.65, -78.22 343.50 80
3 12/09/2019 15:29:44 -0.01, -75.21 -0.00, -75.27 6.68 80
4 12/11/2019 15:20:12 -0.01, -75.22 -0.60, -72.31 330.41 80
5 12/12/2019 03:41:36 0.01, -75.21 -0.50, -77.50 260.75 80
6 12/14/2019 03:26:45 0.01, -75.22 0.16, -74.54 76.53 80
7 12/16/2019 03:14:33 -0.00, -75.23 0.77, -71.58 414.43 80
8 12/16/2019 15:35:49 0.01, -75.24 0.30, -76.74 170.47 80
9 12/18/2019 15:26:17 0.02, -75.26 -0.31, -73.78 168.21 80
10 12/19/2019 03:47:41 -0.02, -75.25 -0.80, -78.97 422.33 80




NCC Satellite Simultaneous Nadir Overpasses (SNOs) Prediction Service
